"datetime","temp","dp","rain_mm","uv","mb"
"2015-07-01 00:00:00",19.8,15.1,0.0,0.0,1013.0
"2015-07-01 00:01:00",19.9,15.1,0.0,0.0,1013.0
"2015-07-01 00:02:00",20.0,15.0,0.0,0.0,1012.9
"2015-07-01 00:03:00",20.0,15.2,0.0,0.0,1012.9
"2015-07-01 00:04:00",20.0,15.2,0.0,0.0,1012.9
"2015-07-01 00:05:00",20.0,15.2,0.0,0.0,1012.9
"2015-07-01 00:06:00",20.0,15.0,0.0,0.0,1013.0
"2015-07-01 00:07:00",20.0,15.0,0.0,0.0,1013.0
"2015-07-01 00:08:00",20.0,15.0,0.0,0.0,1013.1
"2015-07-01 00:09:00",20.0,15.2,0.0,0.0,1013.3
"2015-07-01 00:10:00",19.9,15.4,0.0,0.0,1013.4
"2015-07-01 00:11:00",19.9,15.5,0.0,0.0,1013.5
"2015-07-01 00:12:00",19.8,15.6,0.0,0.0,1013.5
"2015-07-01 00:13:00",19.7,15.5,0.0,0.0,1013.5
"2015-07-01 00:14:00",19.6,15.2,0.0,0.0,1013.5
"2015-07-01 00:15:00",19.6,15.2,0.0,0.0,1013.5
"2015-07-01 00:16:00",19.6,15.4,0.0,0.0,1013.6
"2015-07-01 00:17:00",19.6,15.2,0.0,0.0,1013.6
"2015-07-01 00:18:00",19.6,15.6,0.0,0.0,1013.6
"2015-07-01 00:19:00",19.5,15.8,0.0,0.0,1013.6
"2015-07-01 00:20:00",19.5,15.0,0.0,0.0,1013.5
"2015-07-01 00:21:00",19.6,15.2,0.0,0.0,1013.4
"2015-07-01 00:22:00",19.6,15.2,0.0,0.0,1013.4
"2015-07-01 00:23:00",19.6,15.1,0.0,0.0,1013.3
"2015-07-01 00:24:00",19.7,14.9,0.0,0.0,1013.1
"2015-07-01 00:25:00",19.7,15.0,0.0,0.0,1013.1
"2015-07-01 00:26:00",19.8,15.0,0.0,0.0,1013.1
"2015-07-01 00:27:00",19.8,15.0,0.0,0.0,1013.0
"2015-07-01 00:28:00",19.8,15.3,0.0,0.0,1013.1
"2015-07-01 00:29:00",19.8,15.3,0.0,0.0,1013.1
"2015-07-01 00:30:00",19.8,15.3,0.0,0.0,1013.1
"2015-07-01 00:31:00",19.8,15.2,0.0,0.0,1013.2
"2015-07-01 00:32:00",19.8,15.2,0.0,0.0,1013.3
"2015-07-01 00:33:00",19.7,15.2,0.0,0.0,1013.3
"2015-07-01 00:34:00",19.7,15.2,0.0,0.0,1013.3
"2015-07-01 00:35:00",19.7,15.3,0.0,0.0,1013.3
"2015-07-01 00:36:00",19.6,15.7,0.0,0.0,1013.3
"2015-07-01 00:37:00",19.5,15.6,0.0,0.0,1013.3
"2015-07-01 00:38:00",19.4,15.7,0.0,0.0,1013.3
"2015-07-01 00:39:00",19.3,15.6,0.0,0.0,1013.3
"2015-07-01 00:40:00",19.3,15.5,0.0,0.0,1013.3
"2015-07-01 00:41:00",19.2,15.5,0.0,0.0,1013.3
"2015-07-01 00:42:00",19.2,15.6,0.0,0.0,1013.3
"2015-07-01 00:43:00",19.1,15.6,0.0,0.0,1013.3
"2015-07-01 00:44:00",19.1,15.6,0.0,0.0,1013.3
"2015-07-01 00:45:00",19.1,15.6,0.0,0.0,1013.3
"2015-07-01 00:46:00",19.1,15.5,0.0,0.0,1013.3
"2015-07-01 00:47:00",19.1,15.5,0.0,0.0,1013.2
"2015-07-01 00:48:00",19.1,15.5,0.0,0.0,1013.2
"2015-07-01 00:49:00",19.1,15.5,0.0,0.0,1013.2
"2015-07-01 00:50:00",19.0,15.7,0.0,0.0,1013.2
"2015-07-01 00:51:00",19.0,15.7,0.0,0.0,1013.2
"2015-07-01 00:52:00",19.0,15.5,0.0,0.0,1013.1
"2015-07-01 00:53:00",19.0,15.5,0.0,0.0,1013.1
"2015-07-01 00:54:00",19.0,15.5,0.0,0.0,1013.1
"2015-07-01 00:55:00",19.0,15.5,0.0,0.0,1013.1
"2015-07-01 00:56:00",19.0,15.5,0.0,0.0,1013.1
"2015-07-01 00:57:00",19.0,15.3,0.0,0.0,1013.0
"2015-07-01 00:58:00",19.1,15.3,0.0,0.0,1013.0
"2015-07-01 00:59:00",19.1,15.3,0.0,0.0,1013.0
"2015-07-01 01:00:00",19.1,15.2,0.0,0.0,1013.0
"2015-07-01 01:01:00",19.1,15.2,0.0,0.0,1013.0
"2015-07-01 01:02:00",19.1,15.2,0.0,0.0,1013.0
"2015-07-01 01:03:00",19.2,15.2,0.0,0.0,1013.0
"2015-07-01 01:04:00",19.2,15.2,0.0,0.0,1013.0
"2015-07-01 01:05:00",19.2,15.2,0.0,0.0,1013.0
"2015-07-01 01:06:00",19.2,15.2,0.0,0.0,1013.0
"2015-07-01 01:07:00",19.2,15.2,0.0,0.0,1013.0
"2015-07-01 01:08:00",19.2,15.2,0.0,0.0,1013.0
"2015-07-01 01:09:00",19.2,15.2,0.0,0.0,1013.1
"2015-07-01 01:10:00",19.2,15.0,0.0,0.0,1013.1
"2015-07-01 01:11:00",19.2,15.0,0.0,0.0,1013.1
"2015-07-01 01:12:00",19.2,15.1,0.0,0.0,1013.1
"2015-07-01 01:13:00",19.2,15.1,0.0,0.0,1013.0
"2015-07-01 01:14:00",19.3,14.9,0.0,0.0,1013.0
"2015-07-01 01:15:00",19.3,14.8,0.0,0.0,1013.0
"2015-07-01 01:16:00",19.4,14.6,0.0,0.0,1013.0
"2015-07-01 01:17:00",19.5,14.5,0.0,0.0,1013.0
"2015-07-01 01:18:00",19.6,14.8,0.0,0.0,1013.0
"2015-07-01 01:19:00",19.7,14.7,0.0,0.0,1013.0
"2015-07-01 01:20:00",19.8,14.6,0.0,0.0,1013.0
"2015-07-01 01:21:00",19.9,14.5,0.0,0.0,1013.0
"2015-07-01 01:22:00",20.0,14.5,0.0,0.0,1013.0
"2015-07-01 01:23:00",20.0,14.4,0.0,0.0,1013.0
"2015-07-01 01:24:00",20.1,14.7,0.0,0.0,1013.0
"2015-07-01 01:25:00",20.2,14.3,0.0,0.0,1013.0
"2015-07-01 01:26:00",20.3,14.4,0.0,0.0,1013.0
"2015-07-01 01:27:00",20.4,14.3,0.0,0.0,1013.0
"2015-07-01 01:28:00",20.6,14.2,0.0,0.0,1013.0
"2015-07-01 01:29:00",20.7,14.3,0.0,0.0,1013.0
"2015-07-01 01:30:00",20.7,14.4,0.0,0.0,1013.0
"2015-07-01 01:31:00",20.7,14.6,0.0,0.0,1013.1
"2015-07-01 01:32:00",20.7,14.4,0.0,0.0,1013.1
"2015-07-01 01:33:00",20.7,14.4,0.0,0.0,1013.1
"2015-07-01 01:34:00",20.7,14.4,0.0,0.0,1013.1
"2015-07-01 01:35:00",20.7,14.3,0.0,0.0,1013.1
"2015-07-01 01:36:00",20.7,14.1,0.0,0.0,1013.1
"2015-07-01 01:37:00",20.7,14.4,0.0,0.0,1013.1
"2015-07-01 01:38:00",20.8,14.2,0.0,0.0,1013.1
"2015-07-01 01:39:00",20.8,14.2,0.0,0.0,1013.1
"2015-07-01 01:40:00",20.8,14.2,0.0,0.0,1013.1
"2015-07-01 01:41:00",20.8,14.4,0.0,0.0,1013.1
"2015-07-01 01:42:00",20.8,14.4,0.0,0.0,1013.1
"2015-07-01 01:43:00",20.7,14.4,0.0,0.0,1013.1
"2015-07-01 01:44:00",20.7,14.3,0.0,0.0,1013.1
"2015-07-01 01:45:00",20.7,14.3,0.0,0.0,1013.1
"2015-07-01 01:46:00",20.7,14.3,0.0,0.0,1013.2
"2015-07-01 01:47:00",20.7,14.3,0.0,0.0,1013.1
"2015-07-01 01:48:00",20.7,14.3,0.0,0.0,1013.1
"2015-07-01 01:49:00",20.6,14.5,0.0,0.0,1013.0
"2015-07-01 01:50:00",20.5,14.7,0.0,0.0,1013.0
"2015-07-01 01:51:00",20.5,14.8,0.0,0.0,1013.0
"2015-07-01 01:52:00",20.4,14.8,0.0,0.0,1013.0
"2015-07-01 01:53:00",20.3,14.7,0.0,0.0,1012.9
"2015-07-01 01:54:00",20.3,14.6,0.0,0.0,1012.8
"2015-07-01 01:55:00",20.3,14.4,0.0,0.0,1012.7
"2015-07-01 01:56:00",20.3,14.4,0.0,0.0,1012.6
"2015-07-01 01:57:00",20.3,14.4,0.0,0.0,1012.5
"2015-07-01 01:58:00",20.3,14.2,0.0,0.0,1012.3
"2015-07-01 01:59:00",20.3,14.2,0.0,0.0,1012.2
"2015-07-01 02:00:00",20.3,14.5,0.0,0.0,1012.2
"2015-07-01 02:01:00",20.3,14.2,0.0,0.0,1012.3
"2015-07-01 02:02:00",20.3,14.2,0.0,0.0,1012.5
"2015-07-01 02:03:00",20.3,14.2,0.0,0.0,1012.8
"2015-07-01 02:04:00",20.3,14.5,0.0,0.0,1012.8
"2015-07-01 02:05:00",20.3,14.5,0.0,0.0,1012.8
"2015-07-01 02:06:00",20.4,14.0,0.0,0.0,1012.7
"2015-07-01 02:07:00",20.5,14.2,0.0,0.0,1012.7
"2015-07-01 02:08:00",20.6,14.2,0.0,0.0,1012.7
"2015-07-01 02:09:00",20.7,14.3,0.0,0.0,1012.7
"2015-07-01 02:10:00",20.7,14.1,0.0,0.0,1012.8
"2015-07-01 02:11:00",20.8,14.2,0.0,0.0,1012.7
"2015-07-01 02:12:00",20.8,14.0,0.0,0.0,1012.7
"2015-07-01 02:13:00",20.8,14.0,0.0,0.0,1012.7
"2015-07-01 02:14:00",20.9,14.1,0.0,0.0,1012.7
"2015-07-01 02:15:00",21.0,14.1,0.0,0.0,1012.7
"2015-07-01 02:16:00",21.0,14.2,0.0,0.0,1012.6
"2015-07-01 02:17:00",21.0,14.2,0.0,0.0,1012.6
"2015-07-01 02:18:00",21.0,14.2,0.0,0.0,1012.6
"2015-07-01 02:19:00",21.0,14.0,0.0,0.0,1012.6
"2015-07-01 02:20:00",21.1,14.0,0.0,0.0,1012.5
"2015-07-01 02:21:00",21.1,13.8,0.0,0.0,1012.5
"2015-07-01 02:22:00",21.1,14.0,0.0,0.0,1012.5
"2015-07-01 02:23:00",21.1,13.8,0.0,0.0,1012.6
"2015-07-01 02:24:00",21.2,13.9,0.0,0.0,1012.5
"2015-07-01 02:25:00",21.2,13.9,0.0,0.0,1012.5
"2015-07-01 02:26:00",21.3,13.7,0.0,0.0,1012.5
"2015-07-01 02:27:00",21.4,13.8,0.0,0.0,1012.4
"2015-07-01 02:28:00",21.4,14.1,0.0,0.0,1012.5
"2015-07-01 02:29:00",21.4,14.0,0.0,0.0,1012.5
"2015-07-01 02:30:00",21.3,14.0,0.0,0.0,1012.5
"2015-07-01 02:31:00",21.3,13.9,0.0,0.0,1012.5
"2015-07-01 02:32:00",21.3,13.9,0.0,0.0,1012.5
"2015-07-01 02:33:00",21.2,13.9,0.0,0.0,1012.5
"2015-07-01 02:34:00",21.2,13.9,0.0,0.0,1012.5
"2015-07-01 02:35:00",21.2,13.9,0.0,0.0,1012.5
"2015-07-01 02:36:00",21.2,13.8,0.0,0.0,1012.5
"2015-07-01 02:37:00",21.2,13.8,0.0,0.0,1012.4
"2015-07-01 02:38:00",21.2,13.8,0.0,0.0,1012.5
"2015-07-01 02:39:00",21.2,13.8,0.0,0.0,1012.4
"2015-07-01 02:40:00",21.1,13.8,0.0,0.0,1012.5
"2015-07-01 02:41:00",21.1,13.8,0.0,0.0,1012.5
"2015-07-01 02:42:00",21.1,13.8,0.0,0.0,1012.5
"2015-07-01 02:43:00",21.0,14.0,0.0,0.0,1012.6
"2015-07-01 02:44:00",21.0,13.7,0.0,0.0,1012.6
"2015-07-01 02:45:00",21.0,13.9,0.0,0.0,1012.6
"2015-07-01 02:46:00",21.0,13.7,0.0,0.0,1012.5
"2015-07-01 02:47:00",21.0,13.9,0.0,0.0,1012.5
"2015-07-01 02:48:00",21.0,13.9,0.0,0.0,1012.5
"2015-07-01 02:49:00",21.0,13.9,0.0,0.0,1012.5
"2015-07-01 02:50:00",20.9,13.9,0.0,0.0,1012.5
"2015-07-01 02:51:00",20.9,13.9,0.0,0.0,1012.5
"2015-07-01 02:52:00",20.9,13.9,0.0,0.0,1012.5
"2015-07-01 02:53:00",20.9,13.9,0.0,0.0,1012.5
"2015-07-01 02:54:00",20.9,13.6,0.0,0.0,1012.4
"2015-07-01 02:55:00",20.9,13.9,0.0,0.0,1012.5
"2015-07-01 02:56:00",20.9,14.1,0.0,0.0,1012.4
"2015-07-01 02:57:00",20.8,14.0,0.0,0.0,1012.5
"2015-07-01 02:58:00",20.8,14.0,0.0,0.0,1012.4
"2015-07-01 02:59:00",20.8,13.7,0.0,0.0,1012.5
"2015-07-01 03:00:00",20.8,13.7,0.0,0.0,1012.4
"2015-07-01 03:01:00",20.8,13.7,0.0,0.0,1012.4
"2015-07-01 03:02:00",20.8,13.7,0.0,0.0,1012.4
"2015-07-01 03:03:00",20.8,14.0,0.0,0.0,1012.4
"2015-07-01 03:04:00",20.7,13.9,0.0,0.0,1012.4
"2015-07-01 03:05:00",20.7,13.9,0.0,0.0,1012.4
"2015-07-01 03:06:00",20.7,13.9,0.0,0.0,1012.4
"2015-07-01 03:07:00",20.6,13.8,0.0,0.0,1012.4
"2015-07-01 03:08:00",20.6,13.8,0.0,0.0,1012.4
"2015-07-01 03:09:00",20.6,14.0,0.0,0.0,1012.4
"2015-07-01 03:10:00",20.6,13.8,0.0,0.0,1012.4
"2015-07-01 03:11:00",20.6,13.8,0.0,0.0,1012.4
"2015-07-01 03:12:00",20.6,13.8,0.0,0.0,1012.3
"2015-07-01 03:13:00",20.6,14.0,0.0,0.0,1012.4
"2015-07-01 03:14:00",20.6,14.0,0.0,0.0,1012.3
"2015-07-01 03:15:00",20.5,14.2,0.0,0.0,1012.3
"2015-07-01 03:16:00",20.5,14.1,0.0,0.0,1012.3
"2015-07-01 03:17:00",20.4,14.1,0.0,0.0,1012.2
"2015-07-01 03:18:00",20.4,14.1,0.0,0.0,1012.2
"2015-07-01 03:19:00",20.4,14.1,0.0,0.0,1012.2
"2015-07-01 03:20:00",20.4,13.8,0.0,0.0,1012.2
"2015-07-01 03:21:00",20.4,14.1,0.0,0.0,1012.2
"2015-07-01 03:22:00",20.4,13.9,0.0,0.0,1012.2
"2015-07-01 03:23:00",20.4,13.9,0.0,0.0,1012.2
"2015-07-01 03:24:00",20.5,13.9,0.0,0.0,1012.2
"2015-07-01 03:25:00",20.5,13.9,0.0,0.0,1012.2
"2015-07-01 03:26:00",20.5,13.9,0.0,0.0,1012.2
"2015-07-01 03:27:00",20.5,14.0,0.0,0.0,1012.2
"2015-07-01 03:28:00",20.6,14.0,0.0,0.0,1012.2
"2015-07-01 03:29:00",20.5,14.0,0.0,0.0,1012.2
"2015-07-01 03:30:00",20.5,14.0,0.0,0.0,1012.2
"2015-07-01 03:31:00",20.5,14.0,0.0,0.0,1012.2
"2015-07-01 03:32:00",20.6,14.0,0.0,0.0,1012.2
"2015-07-01 03:33:00",20.5,13.9,0.0,0.0,1012.2
"2015-07-01 03:34:00",20.5,14.2,0.0,0.0,1012.3
"2015-07-01 03:35:00",20.5,13.9,0.0,0.0,1012.2
"2015-07-01 03:36:00",20.4,13.9,0.2,0.0,1012.2
"2015-07-01 03:37:00",20.5,13.9,0.2,0.0,1012.3
"2015-07-01 03:38:00",20.5,14.2,0.2,0.0,1012.2
"2015-07-01 03:39:00",20.5,14.2,0.2,0.0,1012.3
"2015-07-01 03:40:00",20.5,13.9,0.2,0.0,1012.2
"2015-07-01 03:41:00",20.5,13.9,0.2,0.0,1012.2
"2015-07-01 03:42:00",20.5,13.9,0.2,0.0,1012.2
"2015-07-01 03:43:00",20.5,13.9,0.2,0.0,1012.2
"2015-07-01 03:44:00",20.5,13.9,0.2,0.0,1012.2
"2015-07-01 03:45:00",20.5,13.9,0.2,0.0,1012.2
"2015-07-01 03:46:00",20.5,13.9,0.2,0.0,1012.1
"2015-07-01 03:47:00",20.5,13.9,0.2,0.0,1012.2
"2015-07-01 03:48:00",20.5,13.9,0.2,0.0,1012.2
"2015-07-01 03:49:00",20.5,13.9,0.2,0.0,1012.1
"2015-07-01 03:50:00",20.5,13.9,0.2,0.0,1012.1
"2015-07-01 03:51:00",20.5,13.9,0.2,0.0,1012.1
"2015-07-01 03:52:00",20.5,13.9,0.2,0.0,1012.1
"2015-07-01 03:53:00",20.5,14.0,0.2,0.0,1012.1
"2015-07-01 03:54:00",20.5,14.2,0.2,0.0,1012.1
"2015-07-01 03:55:00",20.5,13.9,0.2,0.0,1012.1
"2015-07-01 03:56:00",20.5,13.9,0.2,0.0,1012.1
"2015-07-01 03:57:00",20.5,14.1,0.2,0.0,1012.1
"2015-07-01 03:58:00",20.4,13.9,0.2,0.0,1012.1
"2015-07-01 03:59:00",20.4,13.9,0.2,0.0,1012.1
"2015-07-01 04:00:00",20.4,13.9,0.2,0.0,1012.1
"2015-07-01 04:01:00",20.4,14.1,0.2,0.0,1012.1
"2015-07-01 04:02:00",20.4,14.1,0.2,0.0,1012.1
"2015-07-01 04:03:00",20.4,14.0,0.2,0.0,1012.1
"2015-07-01 04:04:00",20.3,14.0,0.2,0.0,1012.1
"2015-07-01 04:05:00",20.3,13.9,0.2,0.0,1012.0
"2015-07-01 04:06:00",20.3,13.9,0.2,0.0,1012.0
"2015-07-01 04:07:00",20.2,14.1,0.2,0.0,1012.1
"2015-07-01 04:08:00",20.2,13.9,0.2,0.0,1012.1
"2015-07-01 04:09:00",20.2,14.1,0.2,0.0,1012.1
"2015-07-01 04:10:00",20.2,14.1,0.2,0.0,1012.1
"2015-07-01 04:11:00",20.2,14.1,0.2,0.0,1012.1
"2015-07-01 04:12:00",20.1,14.0,0.2,0.0,1012.1
"2015-07-01 04:13:00",20.1,14.0,0.2,0.0,1012.1
"2015-07-01 04:14:00",20.1,14.0,0.2,0.0,1012.1
"2015-07-01 04:15:00",20.1,14.2,0.2,0.0,1012.1
"2015-07-01 04:16:00",20.1,14.0,0.2,0.0,1012.1
"2015-07-01 04:17:00",20.1,14.0,0.2,0.0,1012.1
"2015-07-01 04:18:00",20.1,14.2,0.2,0.0,1012.1
"2015-07-01 04:19:00",20.0,14.1,0.2,0.0,1012.1
"2015-07-01 04:20:00",20.0,13.9,0.2,0.0,1012.1
"2015-07-01 04:21:00",20.0,14.1,0.2,0.0,1012.1
"2015-07-01 04:22:00",20.0,14.1,0.2,0.0,1012.1
"2015-07-01 04:23:00",20.0,13.9,0.2,0.0,1012.1
"2015-07-01 04:24:00",20.0,13.9,0.2,0.0,1012.1
"2015-07-01 04:25:00",20.0,13.9,0.2,0.0,1012.1
"2015-07-01 04:26:00",20.0,13.9,0.2,0.0,1012.1
"2015-07-01 04:27:00",19.9,14.1,0.2,0.0,1012.1
"2015-07-01 04:28:00",19.9,14.0,0.2,0.0,1012.1
"2015-07-01 04:29:00",19.8,14.2,0.2,0.0,1012.1
"2015-07-01 04:30:00",19.8,13.9,0.2,0.0,1012.1
"2015-07-01 04:31:00",19.8,14.0,0.2,0.0,1012.1
"2015-07-01 04:32:00",19.8,14.2,0.2,0.0,1012.1
"2015-07-01 04:33:00",19.8,14.1,0.2,0.0,1012.2
"2015-07-01 04:34:00",19.7,14.3,0.2,0.0,1012.1
"2015-07-01 04:35:00",19.7,14.3,0.2,0.0,1012.2
"2015-07-01 04:36:00",19.6,14.5,0.2,0.0,1012.2
"2015-07-01 04:37:00",19.6,14.4,0.2,0.0,1012.2
"2015-07-01 04:38:00",19.5,14.1,0.2,0.0,1012.1
"2015-07-01 04:39:00",19.6,13.9,0.2,0.0,1012.1
"2015-07-01 04:40:00",19.6,14.0,0.2,0.0,1012.1
"2015-07-01 04:41:00",19.7,14.1,0.2,0.0,1012.1
"2015-07-01 04:42:00",19.7,14.1,0.2,0.0,1012.1
"2015-07-01 04:43:00",19.7,14.3,0.2,0.0,1012.1
"2015-07-01 04:44:00",19.6,14.2,0.2,0.0,1012.1
"2015-07-01 04:45:00",19.5,14.1,0.2,0.0,1012.1
"2015-07-01 04:46:00",19.5,14.1,0.2,0.0,1012.1
"2015-07-01 04:47:00",19.6,13.9,0.2,0.0,1012.1
"2015-07-01 04:48:00",19.6,14.2,0.2,0.0,1012.1
"2015-07-01 04:49:00",19.6,14.0,0.2,0.0,1012.1
"2015-07-01 04:50:00",19.7,14.1,0.2,0.0,1012.1
"2015-07-01 04:51:00",19.7,14.1,0.2,0.0,1012.1
"2015-07-01 04:52:00",19.8,14.1,0.2,0.0,1012.0
"2015-07-01 04:53:00",19.8,13.9,0.2,0.0,1012.0
"2015-07-01 04:54:00",19.9,14.0,0.2,0.0,1012.0
"2015-07-01 04:55:00",19.9,14.0,0.2,0.0,1012.0
"2015-07-01 04:56:00",19.9,13.9,0.2,0.0,1012.0
"2015-07-01 04:57:00",20.0,13.9,0.2,0.0,1012.0
"2015-07-01 04:58:00",20.0,13.9,0.2,0.0,1012.0
"2015-07-01 04:59:00",20.1,14.2,0.2,0.0,1012.1
"2015-07-01 05:00:00",20.1,14.0,0.2,0.0,1012.1
"2015-07-01 05:01:00",20.1,14.0,0.2,0.0,1012.1
"2015-07-01 05:02:00",20.1,14.0,0.2,0.0,1012.1
"2015-07-01 05:03:00",20.1,14.0,0.2,0.0,1012.1
"2015-07-01 05:04:00",20.1,14.0,0.2,0.0,1012.0
"2015-07-01 05:05:00",20.0,14.1,0.2,0.0,1012.0
"2015-07-01 05:06:00",19.9,14.1,0.2,0.0,1012.0
"2015-07-01 05:07:00",19.9,13.9,0.2,0.0,1012.0
"2015-07-01 05:08:00",19.9,14.1,0.2,0.0,1012.0
"2015-07-01 05:09:00",20.0,14.1,0.2,0.0,1012.0
"2015-07-01 05:10:00",20.0,13.9,0.2,0.0,1011.9
"2015-07-01 05:11:00",20.1,14.0,0.2,0.0,1011.9
"2015-07-01 05:12:00",20.1,14.0,0.2,0.0,1011.9
"2015-07-01 05:13:00",20.1,13.8,0.2,0.0,1011.9
"2015-07-01 05:14:00",20.2,13.9,0.2,0.0,1011.9
"2015-07-01 05:15:00",20.2,13.9,0.2,0.0,1011.9
"2015-07-01 05:16:00",20.2,13.9,0.2,0.0,1011.9
"2015-07-01 05:17:00",20.2,14.1,0.2,0.0,1011.9
"2015-07-01 05:18:00",20.2,14.1,0.2,0.0,1011.9
"2015-07-01 05:19:00",20.2,14.1,0.2,0.0,1011.9
"2015-07-01 05:20:00",20.2,13.9,0.2,0.0,1011.9
"2015-07-01 05:21:00",20.2,13.9,0.2,0.0,1011.9
"2015-07-01 05:22:00",20.3,13.9,0.2,0.0,1011.8
"2015-07-01 05:23:00",20.3,13.9,0.2,0.0,1011.8
"2015-07-01 05:24:00",20.3,14.2,0.2,0.0,1011.8
"2015-07-01 05:25:00",20.2,14.1,0.2,0.0,1011.9
"2015-07-01 05:26:00",20.2,14.1,0.2,0.0,1011.9
"2015-07-01 05:27:00",20.2,13.9,0.2,0.0,1011.8
"2015-07-01 05:28:00",20.2,13.9,0.2,0.0,1011.8
"2015-07-01 05:29:00",20.2,14.1,0.2,0.0,1011.9
"2015-07-01 05:30:00",20.2,13.9,0.2,0.0,1011.9
"2015-07-01 05:31:00",20.2,14.1,0.2,0.0,1011.8
"2015-07-01 05:32:00",20.1,14.0,0.2,0.0,1011.8
"2015-07-01 05:33:00",20.1,14.0,0.2,0.0,1011.8
"2015-07-01 05:34:00",20.1,14.2,0.2,0.0,1011.8
"2015-07-01 05:35:00",20.0,14.2,0.2,0.0,1011.8
"2015-07-01 05:36:00",20.0,14.1,0.2,0.0,1011.8
"2015-07-01 05:37:00",20.0,14.1,0.2,0.0,1011.8
"2015-07-01 05:38:00",19.9,14.1,0.2,0.0,1011.7
"2015-07-01 05:39:00",19.9,14.0,0.2,0.0,1011.7
"2015-07-01 05:40:00",19.9,14.0,0.2,0.0,1011.7
"2015-07-01 05:41:00",19.9,14.0,0.2,0.0,1011.8
"2015-07-01 05:42:00",19.8,14.0,0.2,0.0,1011.7
"2015-07-01 05:43:00",19.9,14.0,0.2,0.0,1011.7
"2015-07-01 05:44:00",19.9,14.0,0.2,0.0,1011.7
"2015-07-01 05:45:00",20.0,14.1,0.2,0.0,1011.7
"2015-07-01 05:46:00",20.0,14.1,0.2,0.0,1011.7
"2015-07-01 05:47:00",20.0,14.2,0.2,0.0,1011.7
"2015-07-01 05:48:00",20.1,14.2,0.2,0.0,1011.7
"2015-07-01 05:49:00",20.1,14.0,0.2,0.0,1011.7
"2015-07-01 05:50:00",20.1,14.0,0.2,0.0,1011.6
"2015-07-01 05:51:00",20.1,14.2,0.2,0.0,1011.6
"2015-07-01 05:52:00",20.1,14.2,0.2,0.0,1011.6
"2015-07-01 05:53:00",20.0,14.4,0.2,0.0,1011.6
"2015-07-01 05:54:00",19.9,14.1,0.2,0.0,1011.6
"2015-07-01 05:55:00",19.9,14.1,0.2,0.0,1011.5
"2015-07-01 05:56:00",19.9,14.1,0.2,0.0,1011.5
"2015-07-01 05:57:00",20.0,14.1,0.2,0.0,1011.5
"2015-07-01 05:58:00",20.0,14.1,0.2,0.0,1011.5
"2015-07-01 05:59:00",20.0,14.2,0.2,0.0,1011.5
"2015-07-01 06:00:00",20.1,14.2,0.2,0.0,1011.6
"2015-07-01 06:01:00",20.1,14.2,0.2,0.0,1011.5
"2015-07-01 06:02:00",20.1,14.2,0.2,0.0,1011.5
"2015-07-01 06:03:00",20.1,14.2,0.2,0.0,1011.5
"2015-07-01 06:04:00",20.1,14.2,0.2,0.0,1011.5
"2015-07-01 06:05:00",20.0,14.4,0.2,0.0,1011.4
"2015-07-01 06:06:00",20.0,14.4,0.2,0.0,1011.4
"2015-07-01 06:07:00",20.0,14.4,0.2,0.0,1011.4
"2015-07-01 06:08:00",20.0,14.1,0.2,0.0,1011.4
"2015-07-01 06:09:00",20.0,14.1,0.2,0.0,1011.4
"2015-07-01 06:10:00",20.0,14.2,0.2,0.0,1011.4
"2015-07-01 06:11:00",20.0,14.4,0.2,0.0,1011.4
"2015-07-01 06:12:00",20.0,14.4,0.2,0.0,1011.3
"2015-07-01 06:13:00",20.0,14.1,0.2,0.0,1011.3
"2015-07-01 06:14:00",20.1,14.2,0.2,0.0,1011.3
"2015-07-01 06:15:00",20.1,14.2,0.2,0.0,1011.3
"2015-07-01 06:16:00",20.1,14.3,0.2,0.0,1011.4
"2015-07-01 06:17:00",20.1,14.5,0.2,0.0,1011.3
"2015-07-01 06:18:00",20.1,14.4,0.2,0.0,1011.3
"2015-07-01 06:19:00",20.1,14.4,0.2,0.0,1011.4
"2015-07-01 06:20:00",20.1,14.4,0.2,0.0,1011.4
"2015-07-01 06:21:00",20.1,14.4,0.2,0.0,1011.3
"2015-07-01 06:22:00",20.1,14.2,0.2,0.0,1011.3
"2015-07-01 06:23:00",20.1,14.3,0.2,0.0,1011.3
"2015-07-01 06:24:00",20.2,14.3,0.2,0.0,1011.3
"2015-07-01 06:25:00",20.2,14.3,0.2,0.0,1011.3
"2015-07-01 06:26:00",20.2,14.6,0.2,0.0,1011.3
"2015-07-01 06:27:00",20.2,14.4,0.2,0.0,1011.3
"2015-07-01 06:28:00",20.3,14.4,0.2,0.0,1011.3
"2015-07-01 06:29:00",20.3,14.4,0.2,0.0,1011.3
"2015-07-01 06:30:00",20.3,14.4,0.2,0.0,1011.3
"2015-07-01 06:31:00",20.3,14.5,0.2,0.0,1011.3
"2015-07-01 06:32:00",20.3,14.5,0.2,0.0,1011.3
"2015-07-01 06:33:00",20.3,14.5,0.2,0.0,1011.3
"2015-07-01 06:34:00",20.3,14.5,0.2,0.0,1011.3
"2015-07-01 06:35:00",20.3,14.5,0.2,0.0,1011.3
"2015-07-01 06:36:00",20.4,14.3,0.2,0.0,1011.3
"2015-07-01 06:37:00",20.4,14.6,0.2,0.0,1011.3
"2015-07-01 06:38:00",20.4,14.5,0.2,0.0,1011.3
"2015-07-01 06:39:00",20.4,14.6,0.2,0.0,1011.3
"2015-07-01 06:40:00",20.4,14.6,0.2,0.0,1011.2
"2015-07-01 06:41:00",20.4,14.7,0.2,0.0,1011.2
"2015-07-01 06:42:00",20.4,14.5,0.2,0.0,1011.3
"2015-07-01 06:43:00",20.4,14.6,0.2,0.0,1011.3
"2015-07-01 06:44:00",20.4,14.6,0.2,0.0,1011.3
"2015-07-01 06:45:00",20.4,14.8,0.2,0.0,1011.3
"2015-07-01 06:46:00",20.4,14.6,0.2,0.0,1011.3
"2015-07-01 06:47:00",20.4,14.8,0.2,0.0,1011.3
"2015-07-01 06:48:00",20.4,14.6,0.2,0.0,1011.3
"2015-07-01 06:49:00",20.5,14.6,0.2,0.0,1011.3
"2015-07-01 06:50:00",20.5,14.8,0.2,0.0,1011.3
"2015-07-01 06:51:00",20.5,14.8,0.2,0.0,1011.2
"2015-07-01 06:52:00",20.5,14.8,0.2,0.0,1011.2
"2015-07-01 06:53:00",20.5,14.8,0.2,0.0,1011.2
"2015-07-01 06:54:00",20.5,14.8,0.2,0.0,1011.2
"2015-07-01 06:55:00",20.5,14.6,0.2,0.5,1011.2
"2015-07-01 06:56:00",20.6,14.7,0.2,0.0,1011.2
"2015-07-01 06:57:00",20.6,14.7,0.2,0.5,1011.2
"2015-07-01 06:58:00",20.7,14.8,0.2,0.0,1011.2
"2015-07-01 06:59:00",20.7,14.8,0.2,0.0,1011.2
"2015-07-01 07:00:00",20.8,14.9,0.2,0.5,1011.2
"2015-07-01 07:01:00",20.8,14.9,0.2,0.5,1011.2
"2015-07-01 07:02:00",20.8,14.9,0.2,0.5,1011.2
"2015-07-01 07:03:00",20.8,14.7,0.2,0.5,1011.2
"2015-07-01 07:04:00",20.9,14.7,0.2,0.5,1011.2
"2015-07-01 07:05:00",20.9,14.8,0.2,0.5,1011.2
"2015-07-01 07:06:00",21.0,14.8,0.2,0.5,1011.2
"2015-07-01 07:07:00",21.0,14.9,0.2,0.5,1011.2
"2015-07-01 07:08:00",21.1,14.9,0.2,0.5,1011.2
"2015-07-01 07:09:00",21.1,15.0,0.2,0.6,1011.2
"2015-07-01 07:10:00",21.1,15.0,0.2,0.6,1011.3
"2015-07-01 07:11:00",21.1,15.0,0.2,0.6,1011.3
"2015-07-01 07:12:00",21.2,15.0,0.2,0.6,1011.3
"2015-07-01 07:13:00",21.2,14.8,0.2,0.6,1011.3
"2015-07-01 07:14:00",21.2,14.9,0.2,0.6,1011.2
"2015-07-01 07:15:00",21.3,14.9,0.2,0.7,1011.2
"2015-07-01 07:16:00",21.3,14.9,0.2,0.7,1011.2
"2015-07-01 07:17:00",21.3,15.2,0.2,0.7,1011.2
"2015-07-01 07:18:00",21.3,15.2,0.2,0.7,1011.2
"2015-07-01 07:19:00",21.4,15.0,0.2,0.7,1011.2
"2015-07-01 07:20:00",21.4,15.1,0.2,0.7,1011.2
"2015-07-01 07:21:00",21.5,15.1,0.2,0.7,1011.2
"2015-07-01 07:22:00",21.6,15.2,0.2,0.8,1011.2
"2015-07-01 07:23:00",21.6,15.2,0.2,0.8,1011.2
"2015-07-01 07:24:00",21.7,15.3,0.2,0.8,1011.2
"2015-07-01 07:25:00",21.8,15.1,0.2,0.8,1011.2
"2015-07-01 07:26:00",21.8,15.1,0.2,0.8,1011.2
"2015-07-01 07:27:00",21.8,15.4,0.2,0.7,1011.2
"2015-07-01 07:28:00",21.8,15.2,0.2,0.6,1011.2
"2015-07-01 07:29:00",21.9,15.2,0.2,0.7,1011.2
"2015-07-01 07:30:00",21.9,15.3,0.2,0.7,1011.2
"2015-07-01 07:31:00",21.9,15.5,0.2,0.6,1011.2
"2015-07-01 07:32:00",21.9,15.3,0.2,0.6,1011.2
"2015-07-01 07:33:00",21.9,15.3,0.2,0.6,1011.2
"2015-07-01 07:34:00",21.9,15.3,0.2,0.7,1011.2
"2015-07-01 07:35:00",21.9,15.2,0.2,0.7,1011.2
"2015-07-01 07:36:00",21.9,15.2,0.2,0.7,1011.2
"2015-07-01 07:37:00",21.9,15.3,0.2,0.7,1011.2
"2015-07-01 07:38:00",21.9,15.3,0.2,0.7,1011.3
"2015-07-01 07:39:00",21.9,15.3,0.2,0.8,1011.3
"2015-07-01 07:40:00",21.9,15.5,0.2,0.8,1011.3
"2015-07-01 07:41:00",21.9,15.3,0.2,0.8,1011.2
"2015-07-01 07:42:00",21.9,15.3,0.2,0.8,1011.2
"2015-07-01 07:43:00",21.9,15.5,0.2,0.8,1011.2
"2015-07-01 07:44:00",21.9,15.5,0.2,0.8,1011.2
"2015-07-01 07:45:00",21.9,15.5,0.2,0.9,1011.2
"2015-07-01 07:46:00",21.9,15.7,0.2,0.8,1011.2
"2015-07-01 07:47:00",21.9,15.7,0.2,0.8,1011.2
"2015-07-01 07:48:00",21.8,16.1,0.2,1.0,1011.1
"2015-07-01 07:49:00",21.8,15.8,0.2,1.0,1011.1
"2015-07-01 07:50:00",21.7,15.8,0.2,1.0,1011.1
"2015-07-01 07:51:00",21.8,15.8,0.2,0.9,1011.1
"2015-07-01 07:52:00",21.8,15.8,0.2,1.0,1011.1
"2015-07-01 07:53:00",21.8,15.9,0.2,1.0,1011.1
"2015-07-01 07:54:00",21.9,15.7,0.2,1.0,1011.1
"2015-07-01 07:55:00",21.9,15.8,0.2,0.9,1011.1
"2015-07-01 07:56:00",22.0,15.8,0.2,1.0,1011.1
"2015-07-01 07:57:00",22.1,15.9,0.2,0.9,1011.1
"2015-07-01 07:58:00",22.0,15.9,0.2,0.9,1011.0
"2015-07-01 07:59:00",22.0,16.0,0.2,0.9,1011.0
"2015-07-01 08:00:00",22.0,15.8,0.2,1.0,1011.0
"2015-07-01 08:01:00",22.0,15.6,0.2,1.0,1011.0
"2015-07-01 08:02:00",22.0,16.3,0.2,0.9,1011.0
"2015-07-01 08:03:00",22.0,16.5,0.2,1.0,1011.0
"2015-07-01 08:04:00",21.9,16.2,0.2,1.1,1011.0
"2015-07-01 08:05:00",21.9,16.2,0.2,1.1,1011.0
"2015-07-01 08:06:00",22.0,16.0,0.2,1.2,1011.0
"2015-07-01 08:07:00",22.0,16.1,0.2,1.2,1011.0
"2015-07-01 08:08:00",22.1,16.4,0.2,1.2,1010.9
"2015-07-01 08:09:00",22.2,16.2,0.2,1.0,1010.9
"2015-07-01 08:10:00",22.2,16.3,0.2,1.0,1010.9
"2015-07-01 08:11:00",22.3,16.1,0.2,1.4,1010.9
"2015-07-01 08:12:00",22.4,15.5,0.2,1.4,1011.0
"2015-07-01 08:13:00",22.6,15.9,0.2,1.0,1010.9
"2015-07-01 08:14:00",22.7,16.3,0.2,1.1,1010.9
"2015-07-01 08:15:00",22.8,16.1,0.2,1.1,1010.9
"2015-07-01 08:16:00",22.9,15.7,0.2,1.1,1011.0
"2015-07-01 08:17:00",23.0,15.8,0.2,1.0,1010.9
"2015-07-01 08:18:00",23.1,15.7,0.2,1.4,1011.0
"2015-07-01 08:19:00",23.2,16.0,0.2,1.5,1011.0
"2015-07-01 08:20:00",23.3,16.1,0.2,1.5,1010.9
"2015-07-01 08:21:00",23.3,15.9,0.2,1.5,1011.0
"2015-07-01 08:22:00",23.4,16.0,0.2,1.4,1010.9
"2015-07-01 08:23:00",23.5,16.6,0.2,1.2,1010.9
"2015-07-01 08:24:00",23.5,16.8,0.2,1.1,1010.9
"2015-07-01 08:25:00",23.5,17.3,0.2,1.1,1010.9
"2015-07-01 08:26:00",23.5,17.4,0.2,1.1,1011.0
"2015-07-01 08:27:00",23.4,16.9,0.2,1.1,1010.9
"2015-07-01 08:28:00",23.4,16.9,0.2,1.1,1011.0